Weather Roundup
Issued by NWS Chicago, IL

Home | Current Version | Previous Version | Text Only | Print | Product List | Glossary On
Versions: 1 2 3 4 5 6 7 8 9 10 11 12 13 14 15 16 17 18 19 20 21 22 23 24 25 26 27 28 29 30 31 32 33 34 35 36 37 38 39 40 41 42 43 44 45 46 47 48 49 50
000
NZUS59 KLOT 222009
HRRLOT

CHICAGO AREA WEATHER ROUNDUP
NATIONAL WEATHER SERVICE CHICAGO/ROMEOVILLE IL
300 PM CDT TUE AUG 22 2017

NOTE: "FAIR" INDICATES FEW OR NO CLOUDS BELOW 12,000 FEET WITH NO
SIGNIFICANT WEATHER AND/OR OBSTRUCTIONS TO VISIBILITY.

* THESE STATIONS ARE NOT UNDER NWS QUALITY CONTROL. THEY ALSO MAY NOT
  REPORT WEATHER SUCH AS PRECIPITATION OR FOG.

ILZ005-006-012>014-019>023-222100-
NORTHEAST ILLINOIS

CITY           SKY/WX    TMP DP  RH WIND       PRES   REMARKS
OHARE          MOSUNNY   80  56  43 NW18G25   29.90S HX  80
MIDWAY         PTSUNNY   81  55  40 W20G26    29.89F HX  81
AURORA         MOSUNNY   77  60  55 W13       29.93S
LANSING*       MOSUNNY   79  59  49 W12G23    29.90F HX  80
JOLIET*        MOSUNNY   79  59  50 NW10G16   29.93S HX  80
WAUKEGAN       MOSUNNY   77  54  44 NW13G20   29.90R
DUPAGE AIRPORT PTSUNNY   78  59  51 NW13G23   29.91F
WHEELING       MOSUNNY   81  55  40 NW15G23   29.91S HX  81
MORRIS*        MOSUNNY   77  61  57 NW13G23   29.93S
LEWIS AIRPORT* SUNNY     77  58  51 W17       29.92S
NORTHERLY ISL    N/A     79  48  33 W16         N/A
$$

WIZ051-052-058>065-066-070>072-222100-
SOUTHEAST WISCONSIN

CITY           SKY/WX    TMP DP  RH WIND       PRES   REMARKS
MILWAUKEE      MOSUNNY   78  50  37 W16G26    29.90R
KENOSHA*       MOSUNNY   78  54  43 NW15      29.91R
RACINE*        SUNNY     77  51  40 NW16      29.92R
WAUKESHA       MOSUNNY   73  50  43 W18G26    29.93R
WEST BEND      PTSUNNY   73  46  38 W21       29.90S
$$

INZ001>003-010>013-019-020-222100-
NORTHWEST INDIANA

CITY           SKY/WX    TMP DP  RH WIND       PRES   REMARKS
GARY*          PTSUNNY   81  57  44 W16       29.90F HX  81
MICHIGAN CITY* NOT AVBL
RENSSELAER*    NOT AVBL
VALPARAISO     PTSUNNY   81  65  58 NW9G21    29.90F HX  83
$$

LMZ740>746-222100-
SOUTHERN LAKE MICHIGAN

STATION/POSITION TIME  SKY/WX   TEMP WIND        PRES    VSBY
                                AIR  DIR/SP/G
                 (UTC)          (F)  (DEG/KT/KT) (MB)    (MI)
HARRISON CRIB    1940            78  300/ 18/ 20   N/A
BURNHAM HARBOR   NOT AVBL
CALUMET HARBOR   1948            80  320/ 11/ 16 1011.6F
BURNS HARBOR     1940            74  280/  8/ 10 1012.9S
MICHIGAN CITY    1940            74  280/ 14/ 15   N/A
$$

ABBREVIATIONS USED IN REMARKS
   TC - TEMPERATURE IN CELSIUS
  WCI - WIND CHILL INDEX
   HX - HEAT INDEX
  VSB - VISIBILITY
$$



USA.gov is the U.S. government's official web portal to all federal, state and local government web resources and services.